Regional Weather Roundup
Issued by NWS Green Bay, WI

Home | Current Version | Previous Version | Text Only | Print | Product List | Glossary On
Versions: 1 2 3 4 5 6 7 8 9 10 11 12 13 14 15 16 17 18 19 20 21 22 23 24 25 26 27 28 29 30 31 32 33 34 35 36 37 38 39 40 41 42 43 44 45 46 47 48 49 50
000
ASUS43 KGRB 301710
RWRGRB

NORTH-CENTRAL AND NORTHEAST WISCONSIN REGIONAL WEATHER ROUNDUP
NATIONAL WEATHER SERVICE GREEN BAY WI
1200 PM CDT SAT AUG 30 2014

WIZ005-009-010>012-018-019-301800-
NORTH CENTRAL WISCONSIN

CITY           SKY/WX    TMP DP  RH WIND       PRES   REMARKS
IRONWOOD       NOT AVBL
MANITOWISH WTR CLOUDY    60  59  97 N6        29.83S
ARBOR VITAE    CLOUDY    63  61  93 N10       29.82R
EAGLE RIVER    CLOUDY    64  64 100 N7        29.80S
LAND O LAKES   LGT RAIN  63  61  94 N8        29.82S
RHINELANDER    LGT RAIN  65  63  93 N7        29.80S
PHILLIPS       CLOUDY    63  61  91 N7        29.82S
ANTIGO         PTSUNNY   71  65  81 N5        29.79S
TOMAHAWK       CLOUDY    66  62  88 NW8       29.81S
MERRILL        CLOUDY    71  66  83 NW10      29.79S
$$

WIZ013-073-301800-
NORTHEAST WISCONSIN

CITY           SKY/WX    TMP DP  RH WIND       PRES   REMARKS
IRON MOUNTAIN  LGT RAIN  68  65  90 N6        29.75F FOG
MARINETTE      CLOUDY    72  66  83 SW6       29.71F
OCONTO         CLOUDY    69  69 100 W6        29.72F
$$

WIZ017-030-035>037-045-301800-
CENTRAL WISCONSIN

CITY           SKY/WX    TMP DP  RH WIND       PRES   REMARKS
MEDFORD        CLOUDY    68  64  86 NW9       29.81S
WAUSAU         LGT RAIN  68  66  93 NW6       29.77S FOG
MOSINEE        DRIZZLE   70  66  88 NW8       29.80R
MARSHFIELD     CLOUDY    71  66  84 NW8       29.79F
WISC RAPIDS    LGT RAIN  69  69 100 SW6       29.80S
STEVENS POINT  CLOUDY    69  64  83 CALM      29.78F
WAUPACA        CLOUDY    75  67  77 NW10      29.78S
SHAWANO        CLOUDY    73  67  82 NW7       29.76R
CLINTONVILLE   PTSUNNY   72  64  78 NW9       29.76S
$$

WIZ038-039-048-051-301800-
FOX VALLEY

CITY           SKY/WX    TMP DP  RH WIND       PRES   REMARKS
NWS GREEN BAY  LGT RAIN  73  69  87 W12       29.74S
APPLETON       PTSUNNY   72  66  83 W10       29.77S
OSHKOSH        CLOUDY    73  69  87 VRB5      29.76S
FOND DU LAC    LGT RAIN  72  68  87 SW14      29.78R
$$

WIZ022-050-052-301800-
EAST CENTRAL WISCONSIN

CITY           SKY/WX    TMP DP  RH WIND       PRES   REMARKS
STURGEON BAY   CLOUDY    73  68  83 S12       29.73F
MANITOWOC      CLOUDY    78  69  73 MISG      29.75F
SHEBOYGAN      CLOUDY    77  66  68 SW14      29.77S
$$

LMZ563-521-522-541>543-301800-
LAKESHORE

STATION/POSITION TIME  TEMP    WIND        PRES    VSBY  WAVE
                       AIR SEA DIR/SP/G                  HT/PER
                 (UTC) (F)     (DEG/KT/KT) (MB)    (MI)  (FT/S)
SHEBOYGAN LKSHOR 1700   70 59  190/ 11/ 13 1007.9S
KEWAUNEE LKSHORE 1700   63     180/ 12/ 16 1006.6S
NORTHPORT PIER   1700   71     150/  6/  9 1006.8F
N MID LAKE BUOY  1700   67 65  200/ 16/ 19 1006.8F         4/ 6
S GREEN BAY BUOY 1600   72     VRB 10/ 14  1007.7F
SISTER BAY LKSHO 1600   76     250/ 13/ 14   N/A
CHAMBERS ISLAND  1700   70     190/  6/ 11 1006.8F
MENOMINEE LKSHOR 1700   71     190/  5/  9 1007.1F
$$



USA.gov is the U.S. government's official web portal to all federal, state and local government web resources and services.